Location: Ansan
(43.6898°N, 0.7731°E)
Time: 19:49:56
(UTC+00:00)

Cosmos 2082 Rocket - Pass Details

Date: 15 May 2026
Orbit: 832 x 852 km, 71.0° (Epoch: 6 June)

Event Time Altitude Azimuth Distance (km) Brightness Sun altitude
Rises 20:36:06 0° 221° (SW) 3,408 5.3 -12.7°
Reaches altitude 10° 20:38:38 10° 227° (SW) 2,476 4.7 -13.1°
Maximum altitude 20:44:07 48° 301° (WNW) 1,111 3.3 -13.8°
Drops below altitude 10° 20:49:37 10° 15° (NNE) 2,486 5.0 -14.5°
Sets 20:52:11 0° 21° (NNE) 3,423 5.7 -14.8°
